M I D A S
Marine Information and Data Acquisition System
Tripno 682 of the Zeeleeuw from 2004-04-05 07:58:26 to 2004-04-05 12:58:35
Back to CruiseResearch ActivitiesStationsMapUnderway DataData graphs

EquipmentUnitsComments
TimeDGPSUTC
LatitudeDGPSDM.mWGS84
LongitudeDGPSDM.mWGS84
SpeedMeteo Stationm/sRelative wind speed
DirectionMeteo StationdegRelative wind direction
TemperatureMeteo Stationdeg CelciusAir temperature
PressureMeteo StationPaAtmospheric pressure
HumidityMeteo Station%Relative humidity
Missing or incorrect values are displayed as -999
Metereological data collected by the RV Zeeleeuw from 2004-04-05 07:58:26 to 2004-04-05 12:58:35
                                                                                    Next 1000 lines
Time Latitude Longitude Speed Direction Temperature Pressure Humidity
2004-04-05 07:58:33 51°13.597 2°56.098 7.8 180 8.4 101330 72
2004-04-05 07:58:38 51°13.597 2°56.098 10.1 153 8.4 101330 72
2004-04-05 07:58:43 51°13.597 2°56.098 8 157 8.4 101330 72
2004-04-05 07:58:47 51°13.597 2°56.098 5.7 158 8.4 101330 72
2004-04-05 07:58:53 51°13.597 2°56.098 5.6 170 8.3 101330 72
2004-04-05 07:58:57 51°13.597 2°56.098 3.5 169 8.3 101330 72
2004-04-05 07:59:03 51°13.597 2°56.098 6.6 162 8.3 101330 72
2004-04-05 07:59:09 51°13.597 2°56.098 8.2 134 8.3 101330 71
2004-04-05 07:59:13 51°13.597 2°56.098 6.1 164 8.3 101330 71
2004-04-05 07:59:17 51°13.597 2°56.098 6.7 189 8.3 101330 72
2004-04-05 07:59:23 51°13.596 2°56.098 6.2 166 8.3 101330 72
2004-04-05 07:59:29 51°13.596 2°56.097 4.8 201 8.4 101320 72
2004-04-05 07:59:33 51°13.596 2°56.097 4.3 200 8.4 101320 72
2004-04-05 07:59:38 51°13.596 2°56.096 5.6 169 8.4 101330 72
2004-04-05 07:59:43 51°13.596 2°56.094 5.4 172 8.4 101330 72
2004-04-05 07:59:47 51°13.596 2°56.092 6.9 149 8.4 101330 72
2004-04-05 07:59:53 51°13.598 2°56.088 7 147 8.4 101330 72
2004-04-05 07:59:58 51°13.599 2°56.084 5 200 8.4 101330 72
2004-04-05 08:00:03 51°13.601 2°56.079 8.9 145 8.4 101330 72
2004-04-05 08:00:09 51°13.604 2°56.073 12.3 167 8.4 101330 72
2004-04-05 08:00:14 51°13.606 2°56.067 9 150 8.4 101330 72
2004-04-05 08:00:19 51°13.608 2°56.061 8.4 158 8.4 101330 72
2004-04-05 08:00:23 51°13.609 2°56.056 8.4 145 8.4 101330 72
2004-04-05 08:00:29 51°13.612 2°56.048 9.6 175 8.5 101330 72
2004-04-05 08:00:34 51°13.614 2°56.041 6.5 172 8.5 101330 72
2004-04-05 08:00:39 51°13.616 2°56.033 9.7 176 8.4 101330 71
2004-04-05 08:00:44 51°13.618 2°56.026 8.8 177 8.4 101330 71
2004-04-05 08:00:49 51°13.62 2°56.018 7.2 170 8.4 101330 71
2004-04-05 08:00:54 51°13.621 2°56.01 6.1 172 8.4 101330 71
2004-04-05 08:00:59 51°13.624 2°56.002 6.8 167 8.5 101330 71
2004-04-05 08:01:03 51°13.626 2°55.996 7.9 167 8.5 101330 71
2004-04-05 08:01:09 51°13.629 2°55.986 6.4 169 8.5 101330 71
2004-04-05 08:01:14 51°13.632 2°55.977 7.8 175 8.5 101330 71
2004-04-05 08:01:19 51°13.635 2°55.968 4.6 182 8.5 101320 71
2004-04-05 08:01:23 51°13.637 2°55.961 8.7 153 8.5 101320 71
2004-04-05 08:01:29 51°13.64 2°55.95 9.1 172 8.5 101320 71
2004-04-05 08:01:34 51°13.643 2°55.941 7.5 171 8.5 101320 71
2004-04-05 08:01:39 51°13.646 2°55.932 7.6 159 8.5 101320 71
2004-04-05 08:01:43 51°13.649 2°55.924 6 183 8.5 101320 71
2004-04-05 08:01:49 51°13.652 2°55.913 6.1 163 8.5 101330 71
2004-04-05 08:01:54 51°13.655 2°55.904 6 173 8.5 101330 71
2004-04-05 08:01:59 51°13.658 2°55.895 6.2 180 8.5 101330 71
2004-04-05 08:02:04 51°13.661 2°55.885 5 209 8.5 101330 71
2004-04-05 08:02:09 51°13.664 2°55.875 5.3 157 8.6 101330 72
2004-04-05 08:02:14 51°13.667 2°55.865 6.4 145 8.6 101330 72
2004-04-05 08:02:19 51°13.669 2°55.856 7.7 164 8.6 101320 72
2004-04-05 08:02:24 51°13.672 2°55.846 4.7 159 8.6 101320 72
2004-04-05 08:02:29 51°13.674 2°55.837 3.6 172 8.7 101320 72
2004-04-05 08:02:33 51°13.675 2°55.83 2.8 204 8.7 101320 72
2004-04-05 08:02:39 51°13.677 2°55.819 3.9 214 8.7 101330 72
2004-04-05 08:02:43 51°13.678 2°55.812 7 207 8.7 101330 72
2004-04-05 08:02:49 51°13.68 2°55.801 3.4 199 8.7 101330 71
2004-04-05 08:02:54 51°13.681 2°55.794 6.9 192 8.7 101330 71
2004-04-05 08:02:59 51°13.681 2°55.787 4.1 196 8.7 101330 71
2004-04-05 08:03:03 51°13.682 2°55.783 7.1 165 8.7 101330 71
2004-04-05 08:03:07 51°13.682 2°55.78 3.5 219 8.7 101330 71
2004-04-05 08:03:13 51°13.683 2°55.776 4 213 8.7 101330 71
2004-04-05 08:03:18 51°13.683 2°55.775 4.8 228 8.7 101330 71
2004-04-05 08:03:23 51°13.684 2°55.776 5.8 213 8.7 101330 71
2004-04-05 08:03:29 51°13.685 2°55.778 4.9 208 8.7 101320 71
2004-04-05 08:03:33 51°13.685 2°55.779 3.3 250 8.7 101320 71
2004-04-05 08:03:38 51°13.686 2°55.781 2.8 265 8.8 101320 71
2004-04-05 08:03:43 51°13.686 2°55.782 3.8 266 8.8 101330 71
2004-04-05 08:03:49 51°13.686 2°55.781 6 218 8.8 101330 71
2004-04-05 08:03:53 51°13.685 2°55.78 5.4 225 8.8 101330 71
2004-04-05 08:03:58 51°13.684 2°55.778 4.7 231 8.8 101330 71
2004-04-05 08:04:03 51°13.683 2°55.775 5.2 230 8.8 101330 71
2004-04-05 08:04:07 51°13.682 2°55.773 3.4 220 8.8 101330 71
2004-04-05 08:04:14 51°13.68 2°55.768 4 210 8.8 101330 71
2004-04-05 08:04:19 51°13.679 2°55.764 4.2 205 8.8 101330 71
2004-04-05 08:04:23 51°13.678 2°55.762 4 244 8.8 101330 71
2004-04-05 08:04:29 51°13.677 2°55.761 3.2 253 8.8 101320 71
2004-04-05 08:04:34 51°13.678 2°55.762 2.2 250 8.8 101320 71
2004-04-05 08:04:39 51°13.68 2°55.763 5.4 276 8.8 101320 71
2004-04-05 08:04:44 51°13.683 2°55.765 5.9 270 8.8 101330 71
2004-04-05 08:04:49 51°13.687 2°55.767 3.9 301 8.8 101330 71
2004-04-05 08:04:54 51°13.692 2°55.767 3.7 301 8.8 101330 71
2004-04-05 08:04:59 51°13.697 2°55.767 4.8 329 8.8 101330 71
2004-04-05 08:05:03 51°13.702 2°55.766 6 313 8.8 101330 71
2004-04-05 08:05:07 51°13.707 2°55.763 5.8 317 8.8 101340 71
2004-04-05 08:05:13 51°13.713 2°55.758 5.1 351 8.8 101340 71
2004-04-05 08:05:18 51°13.719 2°55.752 4.3 5 8.8 101330 71
2004-04-05 08:05:23 51°13.723 2°55.747 6.1 349 8.8 101330 71
2004-04-05 08:05:27 51°13.728 2°55.742 6.5 348 8.8 101320 71
2004-04-05 08:05:33 51°13.734 2°55.734 7.9 356 8.8 101320 71
2004-04-05 08:05:38 51°13.74 2°55.727 3.6 358 8.8 101320 71
2004-04-05 08:05:43 51°13.746 2°55.719 6.6 7 8.8 101320 71
2004-04-05 08:05:49 51°13.753 2°55.71 10.9 359 8.8 101320 71
2004-04-05 08:05:53 51°13.758 2°55.703 8.6 334 8.8 101320 71
2004-04-05 08:05:59 51°13.766 2°55.693 10.3 332 8.8 101320 71
2004-04-05 08:06:03 51°13.771 2°55.687 6.5 329 8.8 101310 71
2004-04-05 08:06:09 51°13.78 2°55.677 5.3 6 8.8 101310 71
2004-04-05 08:06:13 51°13.787 2°55.671 9.8 230 8.8 101310 71
2004-04-05 08:06:18 51°13.795 2°55.663 2.3 354 8.8 101320 71
2004-04-05 08:06:23 51°13.803 2°55.655 4.8 333 8.8 101320 71
2004-04-05 08:06:29 51°13.813 2°55.645 6.5 352 8.8 101310 71
2004-04-05 08:06:33 51°13.821 2°55.639 3.7 40 8.8 101310 71
2004-04-05 08:06:37 51°13.828 2°55.632 6.4 4 8.8 101320 71
2004-04-05 08:06:43 51°13.839 2°55.623 8.1 355 8.8 101320 71
2004-04-05 08:06:54 51°13.86 2°55.606 8.3 338 8.8 101330 71
2004-04-05 08:06:58 51°13.868 2°55.601 10.9 232 8.9 101330 71
2004-04-05 08:07:03 51°13.878 2°55.594 9.8 318 8.9 101330 71
2004-04-05 08:07:07 51°13.887 2°55.588 8 332 8.9 101320 71
2004-04-05 08:07:13 51°13.899 2°55.58 7.6 346 8.9 101320 71
2004-04-05 08:07:18 51°13.909 2°55.572 6 320 8.8 101310 71
2004-04-05 08:07:23 51°13.919 2°55.565 6.8 25 8.8 101310 71
2004-04-05 08:07:27 51°13.927 2°55.56 9.6 324 8.8 101310 71
2004-04-05 08:07:33 51°13.939 2°55.551 10.5 325 8.8 101310 71
2004-04-05 08:07:37 51°13.947 2°55.545 6.6 344 8.8 101320 71
2004-04-05 08:07:43 51°13.96 2°55.536 8.7 345 8.8 101320 71
2004-04-05 08:07:49 51°13.972 2°55.527 9 300 8.8 101310 71
2004-04-05 08:07:53 51°13.98 2°55.521 6.4 338 8.8 101310 71
2004-04-05 08:07:57 51°13.989 2°55.515 7.1 32 8.8 101320 71
2004-04-05 08:08:03 51°14.001 2°55.506 8.3 317 8.8 101320 71
2004-04-05 08:08:09 51°14.013 2°55.497 10.9 305 8.8 101320 71
2004-04-05 08:08:13 51°14.022 2°55.491 7.7 346 8.8 101320 71
2004-04-05 08:08:18 51°14.032 2°55.484 7.9 336 8.8 101320 71
2004-04-05 08:08:23 51°14.043 2°55.477 7.8 2 8.8 101320 71
2004-04-05 08:08:29 51°14.055 2°55.468 9.1 348 8.8 101320 71
2004-04-05 08:08:33 51°14.064 2°55.462 11.5 296 8.8 101320 71
2004-04-05 08:08:38 51°14.075 2°55.454 6.7 335 8.8 101330 71
2004-04-05 08:08:43 51°14.086 2°55.445 6.7 324 8.8 101330 71
2004-04-05 08:08:49 51°14.1 2°55.435 12.5 341 8.8 101320 71
2004-04-05 08:08:53 51°14.11 2°55.428 10.5 318 8.8 101320 71
2004-04-05 08:08:59 51°14.124 2°55.418 10.7 312 8.8 101320 71
2004-04-05 08:09:03 51°14.134 2°55.41 9.1 329 8.8 101320 71
2004-04-05 08:09:07 51°14.144 2°55.402 11.8 326 8.8 101320 71
2004-04-05 08:09:13 51°14.158 2°55.389 15.3 324 8.8 101320 71
2004-04-05 08:09:19 51°14.172 2°55.375 12.3 335 8.8 101320 71
2004-04-05 08:09:23 51°14.182 2°55.365 12.6 316 8.8 101310 71
2004-04-05 08:09:29 51°14.196 2°55.35 15.3 323 8.8 101310 71
2004-04-05 08:09:33 51°14.205 2°55.339 16.4 328 8.8 101310 71
2004-04-05 08:09:38 51°14.216 2°55.325 16.7 324 8.8 101310 71
2004-04-05 08:09:43 51°14.227 2°55.31 14.2 322 8.8 101310 71
2004-04-05 08:09:49 51°14.239 2°55.292 15.6 330 8.8 101310 71
2004-04-05 08:09:53 51°14.247 2°55.278 14.8 327 8.8 101310 71
2004-04-05 08:09:59 51°14.259 2°55.258 14.9 331 8.8 101300 71
2004-04-05 08:10:03 51°14.268 2°55.245 13.2 327 8.8 101300 71
2004-04-05 08:10:07 51°14.276 2°55.232 15.9 323 8.7 101290 71
2004-04-05 08:10:13 51°14.288 2°55.21 14.4 348 8.7 101290 71
2004-04-05 08:10:18 51°14.298 2°55.192 11.3 330 8.7 101290 71
2004-04-05 08:10:23 51°14.309 2°55.173 11.8 331 8.7 101290 71
2004-04-05 08:10:29 51°14.322 2°55.152 14.6 336 8.7 101290 72
2004-04-05 08:10:33 51°14.33 2°55.137 14.2 322 8.7 101290 72
2004-04-05 08:10:38 51°14.341 2°55.119 17.7 330 8.7 101290 72
2004-04-05 08:10:43 51°14.351 2°55.101 15.3 328 8.7 101280 72
2004-04-05 08:10:47 51°14.36 2°55.086 17.5 327 8.7 101280 72
2004-04-05 08:10:53 51°14.373 2°55.065 18.7 326 8.7 101280 72
2004-04-05 08:10:58 51°14.383 2°55.045 16.8 334 8.7 101280 72
2004-04-05 08:11:03 51°14.392 2°55.025 17.5 332 8.7 101280 72
2004-04-05 08:11:09 51°14.401 2°54.999 16.8 342 8.7 101260 72
2004-04-05 08:11:13 51°14.407 2°54.981 17.6 346 8.7 101250 72
2004-04-05 08:11:18 51°14.414 2°54.958 17.6 339 8.7 101250 72
2004-04-05 08:11:23 51°14.42 2°54.935 18.8 343 8.7 101250 72
2004-04-05 08:11:28 51°14.425 2°54.911 16.9 352 8.6 101250 72
2004-04-05 08:11:33 51°14.429 2°54.887 17.2 351 8.6 101250 72
2004-04-05 08:11:37 51°14.431 2°54.867 17.6 352 8.7 101270 72
2004-04-05 08:11:43 51°14.433 2°54.837 19.2 354 8.7 101270 72
2004-04-05 08:11:49 51°14.434 2°54.806 18.6 357 8.6 101270 72
2004-04-05 08:11:53 51°14.434 2°54.785 20.4 356 8.6 101270 72
2004-04-05 08:11:57 51°14.434 2°54.764 19.3 1 8.6 101270 72
2004-04-05 08:12:03 51°14.432 2°54.732 18.5 6 8.6 101270 72
2004-04-05 08:12:09 51°14.429 2°54.7 18.6 12 8.6 101280 72
2004-04-05 08:12:13 51°14.426 2°54.679 20.6 11 8.6 101280 72
2004-04-05 08:12:18 51°14.421 2°54.653 19 17 8.6 101270 72
2004-04-05 08:12:23 51°14.415 2°54.628 19.7 17 8.6 101270 72
2004-04-05 08:12:29 51°14.406 2°54.597 19.1 15 8.5 101270 72
2004-04-05 08:12:33 51°14.401 2°54.576 18.9 13 8.5 101270 72
2004-04-05 08:12:38 51°14.394 2°54.551 19.6 21 8.5 101260 72
2004-04-05 08:12:43 51°14.386 2°54.525 19.1 20 8.5 101260 72
2004-04-05 08:12:47 51°14.379 2°54.504 20.8 21 8.5 101280 72
2004-04-05 08:12:53 51°14.37 2°54.473 20.1 19 8.5 101280 72
2004-04-05 08:12:58 51°14.363 2°54.447 18.8 19 8.5 101260 72
2004-04-05 08:13:03 51°14.355 2°54.42 18.5 18 8.5 101260 72
2004-04-05 08:13:07 51°14.348 2°54.399 19.2 22 8.5 101270 72
2004-04-05 08:13:13 51°14.339 2°54.367 17.1 17 8.5 101270 72
2004-04-05 08:13:18 51°14.331 2°54.34 19.2 17 8.4 101260 72
2004-04-05 08:13:23 51°14.324 2°54.313 18.2 18 8.4 101260 72
2004-04-05 08:13:27 51°14.317 2°54.291 17.4 23 8.4 101270 72
2004-04-05 08:13:33 51°14.307 2°54.259 18.1 19 8.4 101270 73
2004-04-05 08:13:38 51°14.299 2°54.232 18.2 19 8.4 101270 73
2004-04-05 08:13:43 51°14.291 2°54.205 18.8 19 8.4 101270 73
2004-04-05 08:13:47 51°14.284 2°54.183 17.8 19 8.4 101300 73
2004-04-05 08:13:53 51°14.275 2°54.15 17.7 18 8.4 101300 73
2004-04-05 08:13:57 51°14.268 2°54.128 16.8 11 8.4 101260 73
2004-04-05 08:14:03 51°14.259 2°54.094 16.5 11 8.4 101260 73
2004-04-05 08:14:07 51°14.252 2°54.072 18.6 11 8.4 101260 73
2004-04-05 08:14:13 51°14.242 2°54.039 18.1 16 8.4 101260 73
2004-04-05 08:14:18 51°14.234 2°54.011 18 12 8.4 101270 74
2004-04-05 08:14:23 51°14.226 2°53.983 18.3 17 8.4 101270 74
2004-04-05 08:14:29 51°14.215 2°53.95 20.1 15 8.4 101270 74
2004-04-05 08:14:33 51°14.209 2°53.927 18.4 18 8.4 101270 74
2004-04-05 08:14:38 51°14.2 2°53.899 20.1 16 8.4 101310 74
2004-04-05 08:14:43 51°14.192 2°53.871 20.1 18 8.4 101310 74
2004-04-05 08:14:49 51°14.182 2°53.838 17.2 13 8.4 101270 75
2004-04-05 08:14:53 51°14.175 2°53.815 19.9 16 8.4 101270 75
2004-04-05 08:14:58 51°14.167 2°53.788 19 16 8.4 101270 75
2004-04-05 08:15:03 51°14.159 2°53.759 18.2 17 8.4 101270 75
2004-04-05 08:15:07 51°14.152 2°53.736 17.7 12 8.3 101270 74
2004-04-05 08:15:13 51°14.143 2°53.703 17.6 21 8.3 101270 74
2004-04-05 08:15:18 51°14.134 2°53.674 21.4 16 8.3 101270 74
2004-04-05 08:15:23 51°14.126 2°53.646 19.2 18 8.3 101270 74
2004-04-05 08:15:27 51°14.12 2°53.623 21.4 20 8.3 101260 74
2004-04-05 08:15:33 51°14.109 2°53.59 19.9 16 8.3 101260 74
2004-04-05 08:15:38 51°14.1 2°53.562 20.5 16 8.3 101280 75
2004-04-05 08:15:43 51°14.092 2°53.534 20 16 8.3 101280 75
2004-04-05 08:15:47 51°14.086 2°53.511 19.8 14 8.3 101270 75
2004-04-05 08:15:53 51°14.076 2°53.477 18.7 17 8.3 101270 75
2004-04-05 08:15:57 51°14.069 2°53.454 19.9 16 8.3 101270 75
2004-04-05 08:16:03 51°14.059 2°53.421 18.3 15 8.3 101270 75
2004-04-05 08:16:07 51°14.052 2°53.398 20.2 17 8.2 101260 75
2004-04-05 08:16:13 51°14.042 2°53.365 19.2 18 8.2 101260 75
2004-04-05 08:16:18 51°14.034 2°53.337 20.4 17 8.2 101260 75
2004-04-05 08:16:23 51°14.026 2°53.309 20.4 18 8.2 101260 75
2004-04-05 08:16:29 51°14.016 2°53.275 19.9 20 8.2 101270 76
2004-04-05 08:16:33 51°14.009 2°53.253 18.5 18 8.2 101270 76
2004-04-05 08:16:38 51°14.001 2°53.225 19.6 18 8.1 101260 76
2004-04-05 08:16:43 51°13.992 2°53.196 18.5 17 8.1 101260 76
2004-04-05 08:16:47 51°13.986 2°53.174 18.4 17 8.1 101270 76
2004-04-05 08:16:53 51°13.976 2°53.14 18.6 20 8.1 101270 76
2004-04-05 08:16:58 51°13.968 2°53.112 20.9 15 8 101260 76
2004-04-05 08:17:03 51°13.959 2°53.083 18.6 14 8 101270 76
2004-04-05 08:17:09 51°13.95 2°53.049 19.2 16 8 101270 76
2004-04-05 08:17:13 51°13.943 2°53.027 19.5 20 8 101270 76
2004-04-05 08:17:18 51°13.934 2°52.998 19 18 8 101270 76
2004-04-05 08:17:23 51°13.926 2°52.969 19.5 17 8 101270 76
2004-04-05 08:17:29 51°13.916 2°52.935 18 16 8 101270 76
2004-04-05 08:17:33 51°13.91 2°52.912 17.4 13 8 101270 76
2004-04-05 08:17:38 51°13.901 2°52.884 18.1 15 8 101270 76
2004-04-05 08:17:43 51°13.891 2°52.857 19.3 15 8 101270 76
2004-04-05 08:17:47 51°13.883 2°52.835 19.6 20 8 101270 76
2004-04-05 08:17:53 51°13.871 2°52.803 19.8 21 8 101270 76
2004-04-05 08:17:57 51°13.863 2°52.781 19 21 8 101270 77
2004-04-05 08:18:03 51°13.85 2°52.749 19.6 22 8 101270 77
2004-04-05 08:18:09 51°13.837 2°52.718 18.4 22 8 101270 77
2004-04-05 08:18:13 51°13.828 2°52.697 17 20 8 101270 77
2004-04-05 08:18:17 51°13.819 2°52.676 18.4 16 8 101260 77
2004-04-05 08:18:23 51°13.806 2°52.645 17.8 16 8 101260 77
2004-04-05 08:18:29 51°13.793 2°52.613 18.9 17 8 101250 76
2004-04-05 08:18:33 51°13.784 2°52.592 18.1 20 8 101250 77
2004-04-05 08:18:38 51°13.774 2°52.566 19.7 22 8 101250 77
2004-04-05 08:18:43 51°13.763 2°52.54 18.8 16 8 101250 77
2004-04-05 08:18:49 51°13.75 2°52.508 18.2 20 8 101270 77
2004-04-05 08:18:53 51°13.742 2°52.487 18.2 18 8 101270 77
2004-04-05 08:18:59 51°13.729 2°52.455 17.9 20 8 101290 77
2004-04-05 08:19:03 51°13.721 2°52.434 18.5 24 8 101290 77
2004-04-05 08:19:09 51°13.707 2°52.403 19.6 20 8 101270 77
2004-04-05 08:19:13 51°13.699 2°52.382 19.6 22 8 101270 77
2004-04-05 08:19:19 51°13.686 2°52.35 20.8 23 8 101260 77
2004-04-05 08:19:23 51°13.677 2°52.329 19.2 25 8 101260 77
2004-04-05 08:19:29 51°13.664 2°52.297 20 16 8.1 101260 77
2004-04-05 08:19:33 51°13.656 2°52.276 19.1 22 8.1 101260 77
2004-04-05 08:19:38 51°13.645 2°52.25 18.7 20 8.1 101270 77
2004-04-05 08:19:43 51°13.635 2°52.224 17.9 26 8.1 101270 77
2004-04-05 08:19:47 51°13.626 2°52.204 19.4 26 8.1 101240 77
2004-04-05 08:19:53 51°13.613 2°52.172 20.8 30 8.1 101240 77
2004-04-05 08:19:58 51°13.602 2°52.146 19.7 28 8.1 101250 77
2004-04-05 08:20:03 51°13.592 2°52.12 16.5 16 8.1 101250 77
2004-04-05 08:20:09 51°13.579 2°52.088 18.2 21 8 101250 77
2004-04-05 08:20:13 51°13.571 2°52.067 16.7 23 8 101250 77
2004-04-05 08:20:18 51°13.56 2°52.041 18 18 8 101260 77
2004-04-05 08:20:23 51°13.549 2°52.014 17.9 20 8 101240 78
2004-04-05 08:20:29 51°13.537 2°51.982 18.2 23 8 101240 78
2004-04-05 08:20:33 51°13.529 2°51.961 18.4 26 8 101240 78
2004-04-05 08:20:37 51°13.52 2°51.94 16.6 21 8 101270 78
2004-04-05 08:20:43 51°13.507 2°51.908 17.6 17 8 101270 78
2004-04-05 08:20:49 51°13.494 2°51.877 18.5 19 8 101260 78
2004-04-05 08:20:53 51°13.486 2°51.856 18.8 18 8 101260 78
2004-04-05 08:20:57 51°13.477 2°51.835 17.1 15 8 101260 78
2004-04-05 08:21:03 51°13.464 2°51.804 18.3 20 8 101260 78
2004-04-05 08:21:09 51°13.452 2°51.773 20.6 19 8 101250 78
2004-04-05 08:21:13 51°13.444 2°51.751 20.1 20 8 101250 78
2004-04-05 08:21:18 51°13.433 2°51.725 19.9 21 8 101260 78
2004-04-05 08:21:23 51°13.423 2°51.699 18 19 8 101220 78
2004-04-05 08:21:29 51°13.41 2°51.667 19.3 22 8 101220 78
2004-04-05 08:21:33 51°13.401 2°51.646 17.6 19 8 101260 78
2004-04-05 08:21:38 51°13.39 2°51.62 19.6 22 8 101260 78
2004-04-05 08:21:43 51°13.38 2°51.594 18.7 21 8 101260 78
2004-04-05 08:21:47 51°13.371 2°51.573 18.6 24 8 101250 78
2004-04-05 08:21:53 51°13.358 2°51.542 17.3 16 8 101250 78
2004-04-05 08:21:58 51°13.348 2°51.516 20.9 15 8 101260 78
2004-04-05 08:22:03 51°13.338 2°51.49 21.4 22 8 101260 78
2004-04-05 08:22:07 51°13.33 2°51.469 20 21 8 101270 78
2004-04-05 08:22:13 51°13.317 2°51.438 20.8 22 8 101270 78
2004-04-05 08:22:19 51°13.306 2°51.405 20.8 18 8 101250 78
2004-04-05 08:22:23 51°13.298 2°51.384 16.4 19 8 101250 78
2004-04-05 08:22:29 51°13.287 2°51.351 18.2 16 8 101270 78
2004-04-05 08:22:33 51°13.28 2°51.33 20.6 17 8 101270 78
2004-04-05 08:22:39 51°13.268 2°51.297 19.8 18 8 101260 77
2004-04-05 08:22:43 51°13.26 2°51.276 22.2 21 8 101260 77
2004-04-05 08:22:49 51°13.249 2°51.243 19.9 18 8 101260 77
2004-04-05 08:22:53 51°13.241 2°51.222 21.1 18 8 101260 77
2004-04-05 08:22:58 51°13.232 2°51.195 20.4 21 8 101260 77
2004-04-05 08:23:03 51°13.222 2°51.168 19.5 23 8 101260 77
2004-04-05 08:23:09 51°13.211 2°51.136 18.7 24 7.9 101270 77
2004-04-05 08:23:13 51°13.204 2°51.114 18.8 22 7.9 101270 77
2004-04-05 08:23:18 51°13.194 2°51.088 19 21 8 101250 77
2004-04-05 08:23:23 51°13.185 2°51.06 19.9 16 8 101250 77
2004-04-05 08:23:27 51°13.178 2°51.039 19.7 17 7.9 101250 77
2004-04-05 08:23:33 51°13.167 2°51.007 19.6 16 7.9 101250 77
2004-04-05 08:23:38 51°13.158 2°50.98 21.6 16 7.9 101250 77
2004-04-05 08:23:43 51°13.148 2°50.953 20.8 21 7.9 101250 77
2004-04-05 08:23:49 51°13.138 2°50.92 17.7 20 7.9 101260 77
2004-04-05 08:23:53 51°13.13 2°50.899 19.7 16 7.9 101260 77
2004-04-05 08:23:58 51°13.121 2°50.871 19.1 17 7.9 101260 77
2004-04-05 08:24:03 51°13.112 2°50.845 19 21 7.9 101260 77
2004-04-05 08:24:09 51°13.1 2°50.813 19.7 20 7.9 101260 77
2004-04-05 08:24:13 51°13.093 2°50.791 19.3 20 7.9 101260 77
2004-04-05 08:24:19 51°13.082 2°50.758 18.4 18 7.9 101260 77
2004-04-05 08:24:23 51°13.074 2°50.737 18.7 21 7.9 101260 77
2004-04-05 08:24:29 51°13.063 2°50.705 19 22 7.9 101270 77
2004-04-05 08:24:33 51°13.056 2°50.683 16.7 10 7.9 101270 77
2004-04-05 08:24:39 51°13.044 2°50.651 19.7 20 8 101270 78
2004-04-05 08:24:43 51°13.037 2°50.629 20.6 17 8 101270 78
2004-04-05 08:24:47 51°13.029 2°50.608 20.4 16 8 101260 78
2004-04-05 08:24:53 51°13.018 2°50.575 19.4 22 8 101260 78
2004-04-05 08:24:58 51°13.009 2°50.548 18.9 16 8 101270 78
2004-04-05 08:25:03 51°13 2°50.521 18.2 16 8 101270 78
2004-04-05 08:25:07 51°12.992 2°50.499 20.2 19 8 101260 78
2004-04-05 08:25:13 51°12.981 2°50.466 19.4 18 8 101260 78
2004-04-05 08:25:18 51°12.972 2°50.439 19.8 18 8 101260 77
2004-04-05 08:25:23 51°12.963 2°50.412 18.7 19 8 101260 77
2004-04-05 08:25:29 51°12.952 2°50.38 18.9 23 8 101260 77
2004-04-05 08:25:33 51°12.945 2°50.358 19.9 25 8 101260 77
2004-04-05 08:25:39 51°12.933 2°50.326 19.6 24 8 101260 77
2004-04-05 08:25:43 51°12.926 2°50.304 19.8 22 8 101260 77
2004-04-05 08:25:49 51°12.915 2°50.271 17 21 8 101260 77
2004-04-05 08:25:53 51°12.907 2°50.25 19.1 21 8 101260 77
2004-04-05 08:25:57 51°12.9 2°50.229 18.9 17 8 101260 77
2004-04-05 08:26:03 51°12.888 2°50.197 20 17 8 101260 77
2004-04-05 08:26:07 51°12.881 2°50.175 19.4 17 8 101250 77
2004-04-05 08:26:13 51°12.87 2°50.143 17.5 19 8 101250 77
2004-04-05 08:26:18 51°12.861 2°50.117 18.5 17 8 101270 78
2004-04-05 08:26:23 51°12.852 2°50.09 18.9 16 8 101270 78
2004-04-05 08:26:29 51°12.841 2°50.057 19.4 17 8 101270 78
2004-04-05 08:26:33 51°12.833 2°50.036 19.7 20 8 101270 78
2004-04-05 08:26:38 51°12.824 2°50.01 19.9 19 8 101260 78
2004-04-05 08:26:43 51°12.814 2°49.983 18.6 21 8 101260 78
2004-04-05 08:26:49 51°12.803 2°49.951 16.4 17 8 101260 78
2004-04-05 08:26:53 51°12.795 2°49.929 18.8 15 8 101300 78
2004-04-05 08:26:58 51°12.787 2°49.903 18.1 16 8 101300 78
2004-04-05 08:27:03 51°12.777 2°49.875 19.9 22 8 101300 78
2004-04-05 08:27:09 51°12.767 2°49.843 18.1 19 8 101310 78
2004-04-05 08:27:13 51°12.759 2°49.821 18.4 18 8 101260 78
2004-04-05 08:27:18 51°12.75 2°49.793 18.6 16 8 101260 78
2004-04-05 08:27:23 51°12.741 2°49.766 21.4 23 8 101260 78
2004-04-05 08:27:29 51°12.729 2°49.734 17.9 13 8 101270 78
2004-04-05 08:27:33 51°12.721 2°49.713 20.9 19 8 101270 78
2004-04-05 08:27:37 51°12.714 2°49.69 19.8 20 8 101260 78
2004-04-05 08:27:43 51°12.703 2°49.658 19.3 23 8 101260 78
2004-04-05 08:27:47 51°12.696 2°49.636 18.1 28 8 101260 78
2004-04-05 08:27:54 51°12.682 2°49.598 18.5 23 8 101260 78
2004-04-05 08:27:58 51°12.675 2°49.576 18 24 8 101280 78
2004-04-05 08:28:03 51°12.666 2°49.549 17.6 18 8 101280 78
2004-04-05 08:28:07 51°12.658 2°49.527 17.4 17 8 101300 78
2004-04-05 08:28:13 51°12.647 2°49.494 19 20 8 101300 78
2004-04-05 08:28:18 51°12.637 2°49.467 19.1 21 8 101260 78
2004-04-05 08:28:23 51°12.628 2°49.439 19 22 8 101260 78
2004-04-05 08:28:29 51°12.617 2°49.406 17.7 20 8 101260 78
2004-04-05 08:28:33 51°12.61 2°49.383 19.6 18 8 101270 78
2004-04-05 08:28:38 51°12.6 2°49.356 19.7 22 8 101270 78
2004-04-05 08:28:43 51°12.591 2°49.328 18.8 19 8 101270 78
2004-04-05 08:28:47 51°12.583 2°49.307 18.4 20 8 101270 78
2004-04-05 08:28:53 51°12.572 2°49.273 19.1 17 8 101270 78
2004-04-05 08:28:58 51°12.563 2°49.246 18.5 19 8 101270 78
2004-04-05 08:29:03 51°12.553 2°49.219 17.1 21 8 101270 78
2004-04-05 08:29:09 51°12.542 2°49.186 19.4 17 8 101280 78
2004-04-05 08:29:13 51°12.535 2°49.164 18.6 18 8 101260 78
2004-04-05 08:29:18 51°12.526 2°49.136 17.9 15 8 101260 78
2004-04-05 08:29:23 51°12.516 2°49.109 20.3 21 8 101260 78
2004-04-05 08:29:29 51°12.506 2°49.075 21.3 16 8 101270 78
2004-04-05 08:29:33 51°12.498 2°49.054 21 15 8 101280 78
2004-04-05 08:29:39 51°12.487 2°49.021 18.2 17 8 101280 78
2004-04-05 08:29:43 51°12.48 2°48.998 18.4 22 8 101280 78
2004-04-05 08:29:49 51°12.469 2°48.965 18.8 20 8 101270 78
2004-04-05 08:29:53 51°12.462 2°48.943 18.9 21 8 101260 77
2004-04-05 08:29:58 51°12.452 2°48.915 19 23 8 101260 77
2004-04-05 08:30:03 51°12.443 2°48.887 18.3 20 8 101260 77
2004-04-05 08:30:07 51°12.436 2°48.865 19.2 21 8 101260 77
2004-04-05 08:30:14 51°12.423 2°48.826 18.5 21 8 101260 77
2004-04-05 08:30:19 51°12.413 2°48.799 19.7 16 8 101280 77
2004-04-05 08:30:23 51°12.406 2°48.777 20.9 23 8 101260 77
2004-04-05 08:30:29 51°12.395 2°48.744 19.5 19 8 101260 77
2004-04-05 08:30:33 51°12.387 2°48.722 20.8 18 8 101260 77
2004-04-05 08:30:38 51°12.378 2°48.694 21.1 22 8 101270 77
2004-04-05 08:30:43 51°12.369 2°48.667 20 17 8 101270 77
2004-04-05 08:30:49 51°12.358 2°48.633 19.3 14 8 101270 77
2004-04-05 08:30:53 51°12.35 2°48.611 21.3 14 8 101260 77
2004-04-05 08:30:59 51°12.339 2°48.578 19.8 17 8 101260 77
2004-04-05 08:31:03 51°12.331 2°48.556 22 16 8 101260 77
2004-04-05 08:31:07 51°12.324 2°48.534 21 17 8 101260 77
2004-04-05 08:31:13 51°12.313 2°48.501 20.9 24 8 101260 77
2004-04-05 08:31:18 51°12.304 2°48.474 20.3 22 8 101260 77
2004-04-05 08:31:23 51°12.294 2°48.446 19.7 20 8 101260 77
2004-04-05 08:31:29 51°12.283 2°48.413 20.3 22 8 101260 77
2004-04-05 08:31:33 51°12.276 2°48.391 20.3 23 8 101270 77
2004-04-05 08:31:38 51°12.267 2°48.363 20.3 21 8 101270 77
2004-04-05 08:31:43 51°12.257 2°48.336 20.3 20 8 101270 77
2004-04-05 08:31:49 51°12.246 2°48.303 21.6 23 8 101260 76
2004-04-05 08:31:53 51°12.239 2°48.281 21.1 19 8 101260 76
2004-04-05 08:31:58 51°12.229 2°48.254 20.2 19 8 101250 76
2004-04-05 08:32:03 51°12.22 2°48.226 21.7 19 8 101250 76
2004-04-05 08:32:07 51°12.213 2°48.204 21.2 22 8 101260 76
2004-04-05 08:32:13 51°12.201 2°48.171 21.1 18 8 101260 76
2004-04-05 08:32:18 51°12.192 2°48.143 22.6 23 8 101270 76
2004-04-05 08:32:23 51°12.183 2°48.115 20.7 20 8 101270 76
2004-04-05 08:32:29 51°12.172 2°48.082 20 22 8 101260 76
2004-04-05 08:32:33 51°12.164 2°48.06 19.5 21 8 101260 76
2004-04-05 08:32:38 51°12.155 2°48.032 17.7 19 8 101260 76
2004-04-05 08:32:43 51°12.146 2°48.004 18.3 17 8 101260 75
2004-04-05 08:32:49 51°12.135 2°47.971 18.5 24 8 101260 75
2004-04-05 08:32:53 51°12.127 2°47.949 19.9 17 8 101260 75
2004-04-05 08:32:57 51°12.12 2°47.927 20.2 17 8 101250 75
2004-04-05 08:33:03 51°12.108 2°47.894 16.9 19 8 101250 75
2004-04-05 08:33:07 51°12.101 2°47.871 20.6 18 8.1 101270 76
2004-04-05 08:33:14 51°12.088 2°47.832 20 20 8.1 101270 76
2004-04-05 08:33:19 51°12.079 2°47.804 20.1 20 8.1 101310 76
2004-04-05 08:33:23 51°12.071 2°47.782 19.7 19 8.1 101310 76
2004-04-05 08:33:29 51°12.06 2°47.749 20.2 22 8.1 101260 76
2004-04-05 08:33:33 51°12.052 2°47.727 19 20 8.1 101260 76
2004-04-05 08:33:38 51°12.043 2°47.699 19.9 20 8.1 101270 76
2004-04-05 08:33:43 51°12.034 2°47.672 18 20 8.1 101270 76
2004-04-05 08:33:49 51°12.023 2°47.638 20.8 22 8.1 101260 76
2004-04-05 08:33:53 51°12.016 2°47.615 21.1 17 8.1 101270 76
2004-04-05 08:33:57 51°12.008 2°47.593 20.2 16 8.1 101270 76
2004-04-05 08:34:03 51°11.997 2°47.56 20.5 16 8.1 101270 76
2004-04-05 08:34:08 51°11.988 2°47.533 19.9 19 8.1 101260 76
2004-04-05 08:34:13 51°11.978 2°47.505 19.9 21 8.1 101280 76
2004-04-05 08:34:18 51°11.969 2°47.478 18.7 18 8.1 101280 76
2004-04-05 08:34:23 51°11.96 2°47.45 19.4 21 8.1 101270 76
2004-04-05 08:34:29 51°11.948 2°47.417 18.9 17 8.1 101270 76
2004-04-05 08:34:33 51°11.941 2°47.395 19.7 17 8.1 101270 76
2004-04-05 08:34:38 51°11.932 2°47.367 21 19 8.1 101270 76
2004-04-05 08:34:43 51°11.922 2°47.339 19.5 22 8.1 101270 76
2004-04-05 08:34:49 51°11.911 2°47.306 19.1 19 8 101260 76
2004-04-05 08:34:53 51°11.904 2°47.284 20 19 8 101260 76
2004-04-05 08:34:59 51°11.893 2°47.25 19.7 20 8 101270 76
2004-04-05 08:35:03 51°11.887 2°47.228 19 18 8 101270 76
2004-04-05 08:35:09 51°11.877 2°47.193 17.1 14 8 101270 76
2004-04-05 08:35:13 51°11.871 2°47.17 19.5 13 8 101270 76
2004-04-05 08:35:19 51°11.862 2°47.135 20.6 12 8 101260 76
2004-04-05 08:35:23 51°11.856 2°47.112 19.8 14 8 101260 76
2004-04-05 08:35:29 51°11.847 2°47.077 19.8 17 8 101260 76
2004-04-05 08:35:33 51°11.842 2°47.053 19.3 14 8 101260 76
2004-04-05 08:35:37 51°11.836 2°47.03 19.3 16 8 101270 76
2004-04-05 08:35:43 51°11.828 2°46.994 19.3 13 8 101270 76
2004-04-05 08:35:47 51°11.822 2°46.971 20.3 14 8 101270 76
2004-04-05 08:35:53 51°11.813 2°46.935 19.8 15 8 101270 76
2004-04-05 08:35:57 51°11.808 2°46.911 20.1 15 8 101270 76
2004-04-05 08:36:03 51°11.799 2°46.876 19.5 12 8 101270 76
2004-04-05 08:36:09 51°11.791 2°46.841 19.1 15 8 101270 76
2004-04-05 08:36:13 51°11.785 2°46.817 19.6 15 8 101280 76
2004-04-05 08:36:19 51°11.776 2°46.782 20.1 19 8 101280 76
2004-04-05 08:36:23 51°11.771 2°46.758 20.1 16 8 101280 76
2004-04-05 08:36:27 51°11.765 2°46.735 18.4 16 8 101280 76
2004-04-05 08:36:33 51°11.756 2°46.699 17.7 12 8 101280 76
2004-04-05 08:36:38 51°11.749 2°46.67 17.5 16 8 101290 76
2004-04-05 08:36:43 51°11.742 2°46.641 19.3 14 8 101290 76
2004-04-05 08:36:47 51°11.736 2°46.617 18 20 8 101280 76
2004-04-05 08:36:53 51°11.728 2°46.582 17.3 10 8 101280 76
2004-04-05 08:36:58 51°11.721 2°46.553 18.8 17 8 101280 76
2004-04-05 08:37:03 51°11.714 2°46.524 19 10 8 101280 76
2004-04-05 08:37:09 51°11.705 2°46.488 19.1 16 8.1 101280 77
2004-04-05 08:37:13 51°11.7 2°46.465 19.1 16 8.1 101280 77
2004-04-05 08:37:18 51°11.692 2°46.435 18.8 17 8.1 101270 77
2004-04-05 08:37:23 51°11.685 2°46.406 20.1 11 8.1 101280 77
2004-04-05 08:37:29 51°11.677 2°46.37 19.8 14 8.1 101280 77
2004-04-05 08:37:33 51°11.671 2°46.347 19.3 15 8.1 101280 77
2004-04-05 08:37:37 51°11.665 2°46.323 20.4 15 8.1 101270 76
2004-04-05 08:37:43 51°11.657 2°46.287 20.3 12 8.1 101270 76
2004-04-05 08:37:49 51°11.648 2°46.252 17.9 15 8.1 101270 76
2004-04-05 08:37:53 51°11.642 2°46.229 19.2 19 8.1 101280 76
2004-04-05 08:37:57 51°11.636 2°46.206 18 11 8.1 101280 76
2004-04-05 08:38:03 51°11.628 2°46.171 16.2 13 8.1 101280 76
2004-04-05 08:38:09 51°11.619 2°46.136 17.9 16 8.1 101280 76
2004-04-05 08:38:13 51°11.614 2°46.112 16.3 12 8.1 101280 76
2004-04-05 08:38:18 51°11.606 2°46.083 19.2 13 8.1 101270 76
2004-04-05 08:38:23 51°11.6 2°46.053 19 11 8.1 101270 76
2004-04-05 08:38:29 51°11.591 2°46.018 18.9 12 8.1 101280 76
2004-04-05 08:38:33 51°11.585 2°45.994 19.3 12 8.1 101280 76
2004-04-05 08:38:37 51°11.58 2°45.971 18.4 14 8.1 101280 76
2004-04-05 08:38:43 51°11.571 2°45.935 18.3 14 8.1 101280 76
2004-04-05 08:38:49 51°11.562 2°45.9 18.9 16 8.1 101270 76
2004-04-05 08:38:53 51°11.557 2°45.876 19.8 14 8.1 101270 76
2004-04-05 08:38:57 51°11.551 2°45.853 21.1 18 8.1 101290 76
2004-04-05 08:39:03 51°11.542 2°45.818 18.7 17 8.1 101290 76
2004-04-05 08:39:09 51°11.534 2°45.783 20.3 13 8.1 101290 76
2004-04-05 08:39:13 51°11.527 2°45.76 19.1 14 8.1 101290 76
2004-04-05 08:39:18 51°11.52 2°45.731 21 18 8.1 101280 76
2004-04-05 08:39:23 51°11.513 2°45.702 19.3 16 8.1 101280 76
2004-04-05 08:39:29 51°11.504 2°45.668 20.4 17 8.1 101280 76
2004-04-05 08:39:33 51°11.499 2°45.645 19.4 16 8.1 101270 76
2004-04-05 08:39:38 51°11.492 2°45.615 18.4 14 8.1 101270 76
2004-04-05 08:39:43 51°11.485 2°45.586 20.4 13 8.1 101270 76
2004-04-05 08:39:49 51°11.476 2°45.551 18.7 13 8.1 101280 76
2004-04-05 08:39:53 51°11.47 2°45.528 19.5 13 8.1 101280 76
2004-04-05 08:39:58 51°11.463 2°45.499 20.6 15 8.1 101280 76
2004-04-05 08:40:03 51°11.456 2°45.47 21 19 8.1 101280 76
2004-04-05 08:40:09 51°11.447 2°45.435 18.3 14 8.1 101280 76
2004-04-05 08:40:13 51°11.442 2°45.412 19.2 17 8.1 101280 76
2004-04-05 08:40:19 51°11.433 2°45.377 19.6 13 8.1 101280 76
2004-04-05 08:40:23 51°11.427 2°45.354 18.6 13 8.1 101280 76
2004-04-05 08:40:29 51°11.419 2°45.318 18.8 20 8 101280 76
2004-04-05 08:40:33 51°11.413 2°45.295 18.6 16 8.1 101270 76
2004-04-05 08:40:38 51°11.406 2°45.265 17.2 12 8.1 101270 76
2004-04-05 08:40:43 51°11.399 2°45.235 19.4 12 8.1 101270 76
2004-04-05 08:40:47 51°11.393 2°45.212 19.3 11 8.1 101280 76
2004-04-05 08:40:53 51°11.385 2°45.176 18.6 14 8.1 101280 76
2004-04-05 08:40:57 51°11.379 2°45.153 19.8 10 8.1 101280 76
2004-04-05 08:41:03 51°11.37 2°45.117 19.5 13 8.1 101280 76
2004-04-05 08:41:07 51°11.365 2°45.093 21.1 11 8.1 101290 76
2004-04-05 08:41:13 51°11.356 2°45.057 20.5 18 8.1 101280 76
2004-04-05 08:41:18 51°11.349 2°45.028 20.7 18 8.1 101280 76
2004-04-05 08:41:23 51°11.342 2°44.998 21.3 20 8.1 101270 76
2004-04-05 08:41:29 51°11.333 2°44.963 19.3 14 8.1 101270 76
2004-04-05 08:41:33 51°11.328 2°44.939 20 12 8.1 101270 76
2004-04-05 08:41:38 51°11.32 2°44.91 19.4 17 8.1 101280 76
2004-04-05 08:41:43 51°11.313 2°44.88 20.2 18 8.1 101280 76
2004-04-05 08:41:49 51°11.305 2°44.845 19.9 13 8.1 101270 76
2004-04-05 08:41:53 51°11.299 2°44.821 19.9 10 8.1 101270 76
2004-04-05 08:41:58 51°11.292 2°44.792 19.6 13 8.1 101270 76
2004-04-05 08:42:03 51°11.285 2°44.762 20.4 14 8.1 101270 76
2004-04-05 08:42:07 51°11.279 2°44.739 17.9 12 8.1 101280 76
2004-04-05 08:42:13 51°11.27 2°44.703 20.5 14 8.1 101280 76
2004-04-05 08:42:18 51°11.263 2°44.674 19.8 16 8.1 101270 76
2004-04-05 08:42:23 51°11.256 2°44.645 19.2 12 8.1 101280 76
2004-04-05 08:42:29 51°11.248 2°44.609 21.6 12 8.1 101280 76
2004-04-05 08:42:34 51°11.24 2°44.58 20.7 15 8.1 101280 76
2004-04-05 08:42:38 51°11.235 2°44.557 19.9 14 8.1 101280 75
2004-04-05 08:42:43 51°11.227 2°44.527 19.4 15 8.1 101280 75
2004-04-05 08:42:49 51°11.219 2°44.492 20.5 14 8.1 101270 76
2004-04-05 08:42:53 51°11.213 2°44.469 20 13 8.1 101270 76
2004-04-05 08:42:58 51°11.206 2°44.439 18.8 13 8.1 101280 76
2004-04-05 08:43:03 51°11.199 2°44.41 18.7 13 8.1 101280 76
2004-04-05 08:43:09 51°11.19 2°44.375 19.9 12 8.1 101270 76
2004-04-05 08:43:13 51°11.185 2°44.351 19.7 9 8.1 101270 76
2004-04-05 08:43:18 51°11.178 2°44.322 18.4 9 8.1 101270 76
2004-04-05 08:43:23 51°11.171 2°44.292 19.1 12 8.1 101280 76
2004-04-05 08:43:29 51°11.162 2°44.256 17.2 13 8.1 101280 76
2004-04-05 08:43:33 51°11.157 2°44.233 20.3 12 8.1 101290 76
2004-04-05 08:43:38 51°11.15 2°44.204 19.7 11 8.1 101290 76
2004-04-05 08:43:43 51°11.143 2°44.174 19.8 10 8.1 101290 76
2004-04-05 08:43:47 51°11.137 2°44.151 20.1 14 8.2 101290 76
2004-04-05 08:43:53 51°11.128 2°44.115 20 8 8.2 101290 76
2004-04-05 08:43:58 51°11.121 2°44.085 20.2 9 8.2 101280 76
2004-04-05 08:44:03 51°11.114 2°44.056 20.9 12 8.2 101280 76
2004-04-05 08:44:09 51°11.106 2°44.021 20.1 12 8.1 101280 76
2004-04-05 08:44:13 51°11.1 2°43.997 19.5 15 8.1 101280 76
2004-04-05 08:44:19 51°11.092 2°43.962 18.7 12 8.1 101290 76
2004-04-05 08:44:23 51°11.087 2°43.938 19.2 10 8.1 101290 76
2004-04-05 08:44:29 51°11.079 2°43.903 20.4 15 8.1 101280 76
2004-04-05 08:44:33 51°11.073 2°43.88 19.3 12 8.1 101280 76
2004-04-05 08:44:39 51°11.064 2°43.844 18.9 12 8.1 101270 76
2004-04-05 08:44:43 51°11.059 2°43.821 17.4 14 8.1 101270 76
2004-04-05 08:44:47 51°11.053 2°43.797 18.9 16 8.1 101280 76
2004-04-05 08:44:53 51°11.044 2°43.762 17.4 13 8.1 101280 76
2004-04-05 08:44:58 51°11.037 2°43.733 18.7 12 8.1 101280 76
2004-04-05 08:45:03 51°11.03 2°43.703 20.2 17 8.1 101280 76
2004-04-05 08:45:09 51°11.022 2°43.668 20.1 19 8.1 101280 76
2004-04-05 08:45:13 51°11.016 2°43.644 18.4 17 8.1 101280 76
2004-04-05 08:45:18 51°11.009 2°43.615 19.1 16 8.2 101280 76
2004-04-05 08:45:23 51°11.002 2°43.586 18.8 18 8.2 101280 76
2004-04-05 08:45:29 51°10.994 2°43.55 19.8 15 8.2 101290 76
2004-04-05 08:45:33 51°10.988 2°43.527 21.9 16 8.2 101290 76
2004-04-05 08:45:37 51°10.983 2°43.503 20.7 16 8.2 101280 76
2004-04-05 08:45:43 51°10.974 2°43.468 19.7 14 8.2 101280 76
2004-04-05 08:45:49 51°10.966 2°43.433 21 20 8.1 101280 76
2004-04-05 08:45:53 51°10.96 2°43.41 20.2 18 8.1 101280 76
2004-04-05 08:45:59 51°10.951 2°43.375 20.6 20 8.1 101280 76
2004-04-05 08:46:03 51°10.946 2°43.352 19.8 15 8.1 101260 75
2004-04-05 08:46:09 51°10.937 2°43.317 17.4 20 8.1 101260 75
2004-04-05 08:46:13 51°10.932 2°43.293 21.5 17 8.1 101260 75
2004-04-05 08:46:18 51°10.925 2°43.264 19.6 16 8.1 101270 76
2004-04-05 08:46:23 51°10.918 2°43.235 19.9 15 8.1 101270 76
2004-04-05 08:46:29 51°10.909 2°43.2 18 14 8.1 101280 76
2004-04-05 08:46:33 51°10.904 2°43.176 18.8 12 8.1 101280 76
2004-04-05 08:46:37 51°10.898 2°43.153 18.4 13 8.1 101280 76
2004-04-05 08:46:43 51°10.89 2°43.117 19.2 15 8.1 101280 76
2004-04-05 08:46:49 51°10.882 2°43.082 18.8 11 8.1 101280 76
2004-04-05 08:46:53 51°10.876 2°43.059 20.1 12 8.1 101280 76
2004-04-05 08:46:58 51°10.869 2°43.029 19.1 18 8.1 101270 76
2004-04-05 08:47:03 51°10.862 2°43 17.2 18 8.1 101290 77
2004-04-05 08:47:09 51°10.854 2°42.965 18.6 16 8.1 101290 77
2004-04-05 08:47:13 51°10.848 2°42.941 17.7 14 8.1 101290 77
2004-04-05 08:47:18 51°10.841 2°42.912 16.8 9 8.2 101290 77
2004-04-05 08:47:23 51°10.834 2°42.883 18.1 9 8.2 101290 77
2004-04-05 08:47:29 51°10.826 2°42.848 18.9 8 8.2 101290 77
2004-04-05 08:47:33 51°10.821 2°42.824 19.1 9 8.2 101290 77
2004-04-05 08:47:37 51°10.815 2°42.801 17.8 12 8.2 101290 77
2004-04-05 08:47:43 51°10.807 2°42.766 18.7 6 8.2 101290 77
2004-04-05 08:47:49 51°10.799 2°42.731 16.3 11 8.2 101290 77
2004-04-05 08:47:53 51°10.793 2°42.708 18.7 14 8.2 101290 77
2004-04-05 08:47:58 51°10.786 2°42.678 20.2 11 8.2 101300 77
2004-04-05 08:48:03 51°10.779 2°42.649 19.3 15 8.2 101300 77
2004-04-05 08:48:09 51°10.771 2°42.614 19.6 12 8.2 101290 77
2004-04-05 08:48:13 51°10.765 2°42.591 18.7 7 8.2 101300 77
2004-04-05 08:48:18 51°10.758 2°42.562 18.1 8 8.2 101300 77
2004-04-05 08:48:23 51°10.751 2°42.532 21.9 10 8.2 101290 77
2004-04-05 08:48:27 51°10.746 2°42.509 19.6 10 8.2 101290 77
2004-04-05 08:48:33 51°10.738 2°42.474 21.8 12 8.2 101290 77
2004-04-05 08:48:37 51°10.732 2°42.45 20.5 13 8.2 101280 77
2004-04-05 08:48:43 51°10.724 2°42.416 21.7 9 8.2 101280 77
2004-04-05 08:48:49 51°10.715 2°42.381 21.3 13 8.2 101290 77
2004-04-05 08:48:53 51°10.71 2°42.358 21.6 11 8.2 101290 77
2004-04-05 08:48:59 51°10.702 2°42.323 21 12 8.2 101280 77
2004-04-05 08:49:03 51°10.697 2°42.3 20.4 13 8.2 101280 77
2004-04-05 08:49:09 51°10.688 2°42.265 19.7 11 8.2 101240 77
2004-04-05 08:49:13 51°10.683 2°42.242 20.9 12 8.2 101240 77
2004-04-05 08:49:18 51°10.676 2°42.212 20.6 13 8.1 101280 77
2004-04-05 08:49:23 51°10.669 2°42.183 20.2 13 8.1 101280 77
2004-04-05 08:49:29 51°10.661 2°42.148 19.6 10 8.1 101290 77
2004-04-05 08:49:33 51°10.656 2°42.125 18.7 10 8.1 101290 77
2004-04-05 08:49:37 51°10.65 2°42.101 18.6 13 8.1 101290 77
2004-04-05 08:49:43 51°10.642 2°42.066 18.9 4 8.1 101290 77
2004-04-05 08:49:49 51°10.634 2°42.031 19.8 11 8.1 101290 77
2004-04-05 08:49:53 51°10.628 2°42.008 21.1 12 8.1 101290 77
2004-04-05 08:49:59 51°10.62 2°41.973 21 16 8.1 101300 77
2004-04-05 08:50:03 51°10.614 2°41.95 20.3 10 8.1 101290 77
2004-04-05 08:50:09 51°10.606 2°41.915 21.4 12 8.1 101290 77
2004-04-05 08:50:13 51°10.601 2°41.892 21.1 9 8.1 101290 77
2004-04-05 08:50:18 51°10.594 2°41.863 20.2 15 8.1 101290 77
2004-04-05 08:50:23 51°10.587 2°41.834 19.9 11 8.1 101290 77
2004-04-05 08:50:29 51°10.579 2°41.799 19 11 8.1 101270 77
2004-04-05 08:50:33 51°10.574 2°41.776 19.6 10 8.1 101270 77
2004-04-05 08:50:37 51°10.568 2°41.753 21.6 13 8.1 101280 77
2004-04-05 08:50:43 51°10.56 2°41.718 21.3 13 8.1 101280 77
2004-04-05 08:50:49 51°10.552 2°41.685 20.6 5 8.1 101290 77
2004-04-05 08:50:53 51°10.546 2°41.661 19 16 8.1 101290 77
2004-04-05 08:50:58 51°10.54 2°41.632 21.7 8 8.1 101290 77
2004-04-05 08:51:03 51°10.533 2°41.604 21.2 9 8.1 101280 77
2004-04-05 08:51:09 51°10.525 2°41.569 21.4 11 8.1 101280 77
2004-04-05 08:51:13 51°10.52 2°41.546 22.8 9 8.1 101280 77
2004-04-05 08:51:18 51°10.513 2°41.517 22.2 9 8.1 101280 77
2004-04-05 08:51:23 51°10.506 2°41.488 19.5 6 8.1 101280 77
2004-04-05 08:51:29 51°10.498 2°41.453 22.2 4 8.1 101290 77
2004-04-05 08:51:33 51°10.493 2°41.43 22.6 8 8.1 101290 77
2004-04-05 08:51:37 51°10.487 2°41.407 22.2 12 8.1 101270 77
2004-04-05 08:51:43 51°10.479 2°41.372 21.6 11 8.1 101270 77
2004-04-05 08:51:49 51°10.471 2°41.337 23.1 6 8.1 101270 77
2004-04-05 08:51:54 51°10.464 2°41.309 23.3 12 8.1 101270 77
2004-04-05 08:51:59 51°10.458 2°41.28 21.7 10 8.1 101250 77
2004-04-05 08:52:03 51°10.452 2°41.256 22.5 11 8.1 101250 77
2004-04-05 08:52:08 51°10.446 2°41.227 22.5 16 8.1 101260 77
2004-04-05 08:52:13 51°10.439 2°41.199 22.7 9 8.1 101260 77
2004-04-05 08:52:18 51°10.432 2°41.17 21.6 11 8.1 101280 77
2004-04-05 08:52:23 51°10.425 2°41.141 23.1 11 8.1 101280 76
2004-04-05 08:52:29 51°10.417 2°41.106 20.9 13 8.1 101280 76
2004-04-05 08:52:33 51°10.412 2°41.083 22.4 10 8.1 101280 76
2004-04-05 08:52:39 51°10.404 2°41.049 21.6 16 8.1 101290 76
2004-04-05 08:52:43 51°10.398 2°41.025 22.3 14 8.1 101290 76
2004-04-05 08:52:47 51°10.393 2°41.002 20.4 8 8.1 101290 76
2004-04-05 08:52:53 51°10.385 2°40.968 19.6 9 8.1 101280 76
2004-04-05 08:52:57 51°10.38 2°40.944 20.7 12 8.1 101280 76
2004-04-05 08:53:03 51°10.372 2°40.91 22.7 11 8.1 101280 76
2004-04-05 08:53:09 51°10.364 2°40.875 21.8 14 8.1 101280 76
2004-04-05 08:53:13 51°10.358 2°40.852 22 11 8.1 101280 76
2004-04-05 08:53:18 51°10.351 2°40.824 20.6 14 8.1 101280 76
2004-04-05 08:53:23 51°10.345 2°40.795 22 13 8.1 101280 76
2004-04-05 08:53:29 51°10.337 2°40.76 20.2 11 8.1 101280 76
2004-04-05 08:53:33 51°10.332 2°40.737 20.3 10 8.1 101280 76
2004-04-05 08:53:38 51°10.325 2°40.708 20.6 13 8.1 101280 76
2004-04-05 08:53:43 51°10.319 2°40.679 20.7 16 8.1 101280 76
2004-04-05 08:53:49 51°10.31 2°40.645 19.9 13 8.1 101300 76
2004-04-05 08:53:53 51°10.305 2°40.622 20.5 9 8.1 101280 76
2004-04-05 08:53:58 51°10.298 2°40.593 17.9 12 8.1 101280 76
2004-04-05 08:54:03 51°10.291 2°40.564 20.7 19 8.1 101290 76
2004-04-05 08:54:09 51°10.282 2°40.53 20 14 8.1 101290 76
2004-04-05 08:54:13 51°10.277 2°40.507 18.3 14 8.1 101290 76
2004-04-05 08:54:18 51°10.269 2°40.479 19.2 17 8.1 101290 77
2004-04-05 08:54:23 51°10.261 2°40.451 17.7 13 8.1 101290 77
2004-04-05 08:54:29 51°10.251 2°40.417 18.8 14 8.1 101280 77
2004-04-05 08:54:33 51°10.245 2°40.395 18.3 13 8.1 101290 77
2004-04-05 08:54:38 51°10.238 2°40.367 19.7 18 8.1 101290 77
2004-04-05 08:54:43 51°10.23 2°40.338 18.3 18 8.2 101280 77
2004-04-05 08:54:49 51°10.221 2°40.304 18.1 17 8.2 101280 77
2004-04-05 08:54:53 51°10.215 2°40.282 18.1 15 8.2 101280 77
2004-04-05 08:54:57 51°10.209 2°40.259 20.2 9 8.2 101280 77
2004-04-05 08:55:03 51°10.2 2°40.225 20.1 8 8.2 101280 77
2004-04-05 08:55:09 51°10.191 2°40.191 19.7 9 8.2 101280 77
2004-04-05 08:55:13 51°10.185 2°40.169 18.5 12 8.2 101280 77
2004-04-05 08:55:19 51°10.176 2°40.135 20.4 12 8.2 101280 77
2004-04-05 08:55:23 51°10.17 2°40.112 20.4 10 8.2 101280 77
2004-04-05 08:55:29 51°10.161 2°40.078 20.8 14 8.2 101280 77
2004-04-05 08:55:33 51°10.155 2°40.055 19.9 12 8.2 101280 77
2004-04-05 08:55:39 51°10.146 2°40.021 19.5 13 8.2 101280 77
2004-04-05 08:55:43 51°10.139 2°39.998 18.8 14 8.2 101280 77
2004-04-05 08:55:49 51°10.131 2°39.964 18.8 11 8.2 101280 77
2004-04-05 08:55:53 51°10.124 2°39.941 19.2 16 8.1 101270 77
2004-04-05 08:55:59 51°10.115 2°39.907 19.1 16 8.1 101270 77
2004-04-05 08:56:03 51°10.109 2°39.884 19.3 14 8.1 101270 77
2004-04-05 08:56:07 51°10.103 2°39.861 19 16 8.2 101270 77
2004-04-05 08:56:13 51°10.094 2°39.827 20.3 20 8.2 101270 77
2004-04-05 08:56:18 51°10.086 2°39.798 18.7 16 8.2 101290 77
2004-04-05 08:56:23 51°10.079 2°39.77 18.8 13 8.2 101280 77
2004-04-05 08:56:29 51°10.07 2°39.736 17.1 18 8.2 101280 77
2004-04-05 08:56:33 51°10.064 2°39.713 17.5 12 8.2 101280 77
2004-04-05 08:56:39 51°10.055 2°39.679 18.9 14 8.2 101290 77
2004-04-05 08:56:43 51°10.049 2°39.656 18.1 13 8.2 101290 77
2004-04-05 08:56:49 51°10.04 2°39.622 19.6 13 8.2 101280 77
2004-04-05 08:56:53 51°10.033 2°39.599 17.5 15 8.2 101280 77
2004-04-05 08:56:58 51°10.026 2°39.571 18.1 15 8.2 101280 78
2004-04-05 08:57:03 51°10.018 2°39.542 20.2 13 8.2 101280 78
2004-04-05 08:57:07 51°10.012 2°39.52 18.5 13 8.2 101280 78
2004-04-05 08:57:13 51°10.003 2°39.486 19.9 12 8.2 101280 77
2004-04-05 08:57:18 51°9.995 2°39.458 20.2 13 8.2 101280 77
2004-04-05 08:57:23 51°9.988 2°39.43 19.7 12 8.2 101280 77
2004-04-05 08:57:28 51°9.98 2°39.402 20.4 13 8.2 101280 77
2004-04-05 08:57:34 51°9.971 2°39.368 20.5 17 8.2 101280 77
2004-04-05 08:57:39 51°9.963 2°39.34 19.5 9 8.2 101280 77
2004-04-05 08:57:43 51°9.957 2°39.318 19 13 8.2 101280 77
2004-04-05 08:57:49 51°9.948 2°39.284 19 14 8.2 101280 77
2004-04-05 08:57:53 51°9.942 2°39.261 18.9 14 8.2 101280 77
2004-04-05 08:57:58 51°9.934 2°39.233 18.1 15 8.2 101280 77
2004-04-05 08:58:03 51°9.927 2°39.205 20.4 12 8.2 101280 77
2004-04-05 08:58:09 51°9.918 2°39.171 19.6 14 8.2 101280 77
2004-04-05 08:58:13 51°9.912 2°39.148 19.8 15 8.2 101280 77
2004-04-05 08:58:17 51°9.906 2°39.125 19.1 18 8.2 101280 77
2004-04-05 08:58:23 51°9.897 2°39.091 19.4 13 8.2 101280 77
2004-04-05 08:58:29 51°9.888 2°39.057 18.4 12 8.2 101290 77
2004-04-05 08:58:33 51°9.882 2°39.034 19.4 11 8.2 101290 77
2004-04-05 08:58:39 51°9.872 2°39 20 13 8.2 101280 77
2004-04-05 08:58:43 51°9.866 2°38.977 20.4 14 8.2 101280 77
2004-04-05 08:58:49 51°9.857 2°38.944 20.7 15 8.2 101280 77
2004-04-05 08:58:53 51°9.851 2°38.921 20.7 11 8.2 101290 77
2004-04-05 08:58:58 51°9.844 2°38.892 20 14 8.2 101290 77
2004-04-05 08:59:03 51°9.837 2°38.864 20.4 7 8.2 101290 77
2004-04-05 08:59:09 51°9.827 2°38.83 20.9 11 8.2 101280 77
2004-04-05 08:59:13 51°9.822 2°38.807 21.5 13 8.2 101280 77
2004-04-05 08:59:18 51°9.814 2°38.779 20.4 16 8.1 101280 76
2004-04-05 08:59:23 51°9.807 2°38.751 19.3 15 8.1 101280 76
2004-04-05 08:59:29 51°9.798 2°38.717 20.2 15 8.2 101260 76
2004-04-05 08:59:33 51°9.791 2°38.694 20.4 12 8.2 101260 76
2004-04-05 08:59:38 51°9.784 2°38.666 19.7 15 8.1 101280 76
2004-04-05 08:59:43 51°9.776 2°38.638 20.3 12 8.1 101280 76
2004-04-05 08:59:49 51°9.768 2°38.604 19.2 15 8.1 101280 76
2004-04-05 08:59:53 51°9.762 2°38.581 20.2 14 8.1 101280 76
2004-04-05 08:59:58 51°9.754 2°38.552 18.4 13 8.1 101280 76
2004-04-05 09:00:03 51°9.747 2°38.524 16.8 13 8.1 101280 76
2004-04-05 09:00:08 51°9.739 2°38.496 19.1 14 8.1 101280 76
2004-04-05 09:00:13 51°9.732 2°38.467 18.4 15 8.1 101280 76
2004-04-05 09:00:18 51°9.724 2°38.439 19.7 10 8.1 101280 76
2004-04-05 09:00:23 51°9.717 2°38.411 20 14 8.1 101280 76
2004-04-05 09:00:29 51°9.708 2°38.376 19.7 13 8.2 101280 77
2004-04-05 09:00:33 51°9.702 2°38.354 18.5 13 8.2 101280 77
2004-04-05 09:00:38 51°9.694 2°38.325 17.8 10 8.2 101290 77
2004-04-05 09:00:43 51°9.686 2°38.296 17.5 16 8.2 101290 77
2004-04-05 09:00:47 51°9.68 2°38.274 18.4 13 8.2 101280 77
2004-04-05 09:00:53 51°9.671 2°38.24 17.2 12 8.2 101280 77
2004-04-05 09:00:58 51°9.664 2°38.211 17.2 12 8.2 101280 77
2004-04-05 09:01:03 51°9.656 2°38.183 17.5 13 8.2 101280 77
2004-04-05 09:01:09 51°9.647 2°38.148 17.2 11 8.2 101290 77
2004-04-05 09:01:13 51°9.641 2°38.126 16.4 12 8.2 101290 77
2004-04-05 09:01:17 51°9.635 2°38.103 17.9 13 8.2 101290 77
2004-04-05 09:01:23 51°9.626 2°38.068 19.8 15 8.2 101290 77
2004-04-05 09:01:29 51°9.617 2°38.034 19.2 14 8.2 101290 77
2004-04-05 09:01:33 51°9.611 2°38.011 21.4 12 8.2 101290 77
2004-04-05 09:01:38 51°9.604 2°37.983 20.1 14 8.3 101290 77
2004-04-05 09:01:43 51°9.596 2°37.954 22 11 8.3 101290 77
2004-04-05 09:01:48 51°9.589 2°37.925 20.5 8 8.2 101290 77
2004-04-05 09:01:53 51°9.581 2°37.897 20.4 16 8.2 101290 77
2004-04-05 09:01:58 51°9.574 2°37.868 18.9 18 8.2 101290 77
2004-04-05 09:02:03 51°9.566 2°37.84 19.4 16 8.2 101290 77
2004-04-05 09:02:07 51°9.56 2°37.817 18.9 16 8.2 101290 76
2004-04-05 09:02:13 51°9.552 2°37.783 18.5 10 8.2 101290 76
2004-04-05 09:02:19 51°9.542 2°37.749 17.3 14 8.2 101270 76
2004-04-05 09:02:23 51°9.536 2°37.726 18.6 15 8.2 101270 76
2004-04-05 09:02:27 51°9.53 2°37.703 18.1 15 8.2 101280 76
2004-04-05 09:02:33 51°9.521 2°37.669 20.6 9 8.2 101280 76
2004-04-05 09:02:38 51°9.513 2°37.641 19.3 14 8.2 101290 76
2004-04-05 09:02:43 51°9.506 2°37.612 19 15 8.2 101290 76
2004-04-05 09:02:47 51°9.5 2°37.589 18.6 15 8.2 101290 76
2004-04-05 09:02:53 51°9.491 2°37.556 18 14 8.2 101290 76
2004-04-05 09:02:58 51°9.483 2°37.527 19 16 8.2 101280 76
2004-04-05 09:03:03 51°9.476 2°37.499 19.1 15 8.2 101280 76
2004-04-05 09:03:09 51°9.467 2°37.465 19 11 8.2 101270 76
2004-04-05 09:03:13 51°9.461 2°37.442 18.8 9 8.2 101270 76
2004-04-05 09:03:17 51°9.455 2°37.42 21 12 8.2 101290 76
2004-04-05 09:03:23 51°9.446 2°37.386 20 16 8.2 101290 76
2004-04-05 09:03:29 51°9.436 2°37.352 19 12 8.2 101280 76
2004-04-05 09:03:33 51°9.43 2°37.329 20.7 14 8.2 101280 76
2004-04-05 09:03:38 51°9.423 2°37.301 19.7 18 8.2 101270 76
2004-04-05 09:03:43 51°9.415 2°37.273 19.6 17 8.2 101270 76
2004-04-05 09:03:49 51°9.406 2°37.239 20.1 13 8.2 101290 76
2004-04-05 09:03:53 51°9.4 2°37.217 18.6 12 8.2 101290 76
2004-04-05 09:03:57 51°9.394 2°37.194 17.6 16 8.2 101290 76
2004-04-05 09:04:03 51°9.385 2°37.16 17.9 14 8.2 101290 76
2004-04-05 09:04:09 51°9.376 2°37.126 19.9 12 8.2 101270 76
2004-04-05 09:04:13 51°9.37 2°37.103 20.7 12 8.2 101270 76
2004-04-05 09:04:17 51°9.364 2°37.08 19.3 13 8.2 101280 76
2004-04-05 09:04:23 51°9.355 2°37.046 18.6 13 8.2 101280 76
2004-04-05 09:04:29 51°9.346 2°37.012 19.7 10 8.2 101290 76
2004-04-05 09:04:34 51°9.339 2°36.983 19.1 16 8.2 101290 76
2004-04-05 09:04:39 51°9.331 2°36.955 21.1 9 8.2 101290 76
2004-04-05 09:04:43 51°9.325 2°36.932 20.4 12 8.2 101290 76
2004-04-05 09:04:49 51°9.316 2°36.898 21.5 15 8.2 101280 76
2004-04-05 09:04:53 51°9.31 2°36.875 19.5 15 8.2 101280 76
2004-04-05 09:04:58 51°9.302 2°36.847 19.6 16 8.3 101290 76
2004-04-05 09:05:03 51°9.294 2°36.819 20.5 18 8.3 101290 76
2004-04-05 09:05:09 51°9.284 2°36.785 20.5 21 8.3 101290 76
2004-04-05 09:05:13 51°9.277 2°36.763 20.6 17 8.3 101290 76
2004-04-05 09:05:18 51°9.268 2°36.735 19.8 18 8.3 101270 76
2004-04-05 09:05:23 51°9.26 2°36.708 20.2 16 8.3 101270 76
2004-04-05 09:05:27 51°9.252 2°36.686 19   8.2 101290 76
2004-04-05 09:05:33 51°9.242 2°36.653 19.6 18 8.2 101290 76
2004-04-05 09:05:39 51°9.231 2°36.62 18.7 23 8.2 101270 76
2004-04-05 09:05:43 51°9.224 2°36.598 18.1 13 8.2 101270 76
2004-04-05 09:05:49 51°9.213 2°36.565 18.4 15 8.2 101270 75
2004-04-05 09:05:53 51°9.206 2°36.543 18.6 16 8.2 101270 75
2004-04-05 09:05:59 51°9.196 2°36.51 19.4 16 8.2 101270 75
2004-04-05 09:06:03 51°9.189 2°36.488 18.9 12 8.2 101270 75
2004-04-05 09:06:09 51°9.178 2°36.455 20.5 14 8.3 101280 76
2004-04-05 09:06:13 51°9.171 2°36.433 19.7 12 8.3 101280 76
2004-04-05 09:06:18 51°9.162 2°36.406 21.2 18 8.3 101280 76
2004-04-05 09:06:23 51°9.154 2°36.378 20.1 17 8.3 101280 76
2004-04-05 09:06:29 51°9.143 2°36.345 21.5 16 8.3 101280 76
2004-04-05 09:06:33 51°9.136 2°36.323 20.1 23 8.3 101280 76
2004-04-05 09:06:37 51°9.129 2°36.301 18.8 22 8.2 101280 76
2004-04-05 09:06:43 51°9.118 2°36.268 20.3 21 8.2 101280 76
2004-04-05 09:06:49 51°9.108 2°36.235 19 21 8.3 101280 76
2004-04-05 09:06:53 51°9.101 2°36.212 17.2 11 8.3 101280 76
2004-04-05 09:06:58 51°9.092 2°36.185 19.5 18 8.3 101270 75
2004-04-05 09:07:03 51°9.084 2°36.156 17 14 8.3 101270 75
2004-04-05 09:07:09 51°9.074 2°36.123 19.9 11 8.3 101270 75
2004-04-05 09:07:13 51°9.068 2°36.1 20.1 14 8.3 101270 75
2004-04-05 09:07:18 51°9.06 2°36.072 18 16 8.3 101280 75
2004-04-05 09:07:23 51°9.052 2°36.044 17.4 17 8.3 101280 75
2004-04-05 09:07:29 51°9.042 2°36.009 20.1 14 8.3 101280 76
2004-04-05 09:07:33 51°9.036 2°35.987 21.7 16 8.3 101280 76
2004-04-05 09:07:38 51°9.028 2°35.958 21.7 17 8.3 101280 76
2004-04-05 09:07:43 51°9.021 2°35.931 21.5 14 8.3 101280 76
2004-04-05 09:07:48 51°9.013 2°35.903 20.5 15 8.3 101290 76
2004-04-05 09:07:53 51°9.005 2°35.874 19.7 16 8.3 101290 76
2004-04-05 09:07:58 51°8.997 2°35.846 18.8 12 8.3 101290 76
2004-04-05 09:08:03 51°8.99 2°35.818 19.9 17 8.3 101290 76
2004-04-05 09:08:07 51°8.983 2°35.795 20.5 16 8.3 101280 75
2004-04-05 09:08:13 51°8.973 2°35.76 20.2 14 8.3 101280 75
2004-04-05 09:08:18 51°8.966 2°35.732 18.5 11 8.3 101270 75
2004-04-05 09:08:23 51°8.957 2°35.704 17.7 10 8.3 101270 75
2004-04-05 09:08:29 51°8.948 2°35.67 17 10 8.3 101270 76
2004-04-05 09:08:33 51°8.942 2°35.648 20.9 7 8.3 101270 76
2004-04-05 09:08:38 51°8.934 2°35.619 21.2 12 8.3 101270 75
2004-04-05 09:08:43 51°8.927 2°35.591 20.5 13 8.3 101270 75
2004-04-05 09:08:47 51°8.921 2°35.569 18.8 13 8.3 101280 76
2004-04-05 09:08:53 51°8.912 2°35.535 20.2 8 8.3 101280 76
2004-04-05 09:08:57 51°8.906 2°35.513 21.2 16 8.3 101310 76
2004-04-05 09:09:03 51°8.896 2°35.479 18.3 16 8.3 101310 76
2004-04-05 09:09:09 51°8.887 2°35.445 21 15 8.3 101280 76
2004-04-05 09:09:13 51°8.88 2°35.423 20.3 13 8.3 101280 76
2004-04-05 09:09:18 51°8.872 2°35.395 19.5 12 8.3 101280 76
2004-04-05 09:09:23 51°8.864 2°35.366 19.1 17 8.3 101280 76
2004-04-05 09:09:29 51°8.855 2°35.332 19.4 13 8.3 101280 76
2004-04-05 09:09:33 51°8.849 2°35.31 20.4 17 8.3 101280 76
2004-04-05 09:09:38 51°8.841 2°35.281 20.2 13 8.3 101270 75
2004-04-05 09:09:43 51°8.833 2°35.253 18.8 14 8.3 101270 75
2004-04-05 09:09:49 51°8.823 2°35.219 20.4 17 8.3 101270 75
2004-04-05 09:09:53 51°8.817 2°35.196 18.9 17 8.3 101270 75
2004-04-05 09:09:58 51°8.809 2°35.168 20.9 14 8.3 101280 76
2004-04-05 09:10:03 51°8.801 2°35.139 18.1 11 8.3 101280 76
2004-04-05 09:10:08 51°8.793 2°35.111 20 14 8.3 101280 76
2004-04-05 09:10:13 51°8.786 2°35.083 18.8 11 8.3 101280 76
2004-04-05 09:10:18 51°8.777 2°35.054 21.4 13 8.3 101280 76
2004-04-05 09:10:23 51°8.77 2°35.028 20.2 13 8.3 101280 76
2004-04-05 09:10:27 51°8.764 2°35.007 19 8 8.3 101280 76
2004-04-05 09:10:33 51°8.756 2°34.979 17.3 12 8.3 101280 76
2004-04-05 09:10:37 51°8.752 2°34.962 17.7 12 8.3 101280 76
2004-04-05 09:10:43 51°8.745 2°34.938 17.7 7 8.3 101280 76
2004-04-05 09:10:49 51°8.74 2°34.916 19.1 8 8.3 101310 76
2004-04-05 09:10:53 51°8.737 2°34.902 18.7 7 8.3 101310 76
2004-04-05 09:10:58 51°8.734 2°34.885 19.2 2 8.3 101320 76
2004-04-05 09:11:03 51°8.731 2°34.869 18.3 3 8.3 101320 76
2004-04-05 09:11:09 51°8.728 2°34.852 17.2 4 8.3 101320 76
2004-04-05 09:11:13 51°8.727 2°34.841 17.4 358 8.3 101320 76
2004-04-05 09:11:19 51°8.725 2°34.826 17 356 8.3 101330 76
2004-04-05 09:11:23 51°8.724 2°34.817 15.4 1 8.3 101330 76
2004-04-05 09:11:29 51°8.723 2°34.804 15 351 8.2 101320 75
2004-04-05 09:11:33 51°8.722 2°34.795 14.4 356 8.2 101320 75
2004-04-05 09:11:38 51°8.721 2°34.785 16.5 357 8.2 101300 75
2004-04-05 09:11:43 51°8.72 2°34.776 14 351 8.2 101300 75
2004-04-05 09:11:48 51°8.719 2°34.767 14 356 8.2 101320 75
2004-04-05 09:11:53 51°8.719 2°34.758 14.4 349 8.2 101320 75
2004-04-05 09:11:58 51°8.718 2°34.75 15 348 8.2 101320 76
2004-04-05 09:12:03 51°8.718 2°34.742 14.1 343 8.2 101320 76
2004-04-05 09:12:07 51°8.718 2°34.737 13.6 347 8.3 101330 76
2004-04-05 09:12:13 51°8.718 2°34.728 13.8 346 8.3 101330 76
2004-04-05 09:12:18 51°8.717 2°34.721 15 341 8.3 101330 76
2004-04-05 09:12:23 51°8.717 2°34.715 14.2 349 8.3 101330 76
2004-04-05 09:12:29 51°8.717 2°34.708 15.4 336 8.3 101330 76
2004-04-05 09:12:33 51°8.717 2°34.704 16.2 342 8.3 101330 76
2004-04-05 09:12:38 51°8.718 2°34.698 15.5 342 8.3 101330 76
2004-04-05 09:12:43 51°8.718 2°34.693 14.6 343 8.3 101330 76
2004-04-05 09:12:47 51°8.718 2°34.689 14.1 343 8.3 101330 76
2004-04-05 09:12:53 51°8.718 2°34.684 13.8 342 8.3 101330 76
2004-04-05 09:12:58 51°8.719 2°34.68 13.8 343 8.3 101320 76
2004-04-05 09:13:03 51°8.719 2°34.676 12.5 340 8.3 101320 76
2004-04-05 09:13:09 51°8.719 2°34.671 12.6 339 8.3 101320 75
2004-04-05 09:13:13 51°8.719 2°34.668 12.8 343 8.3 101320 75
2004-04-05 09:13:19 51°8.719 2°34.664 11.9 342 8.2 101300 75
2004-04-05 09:13:23 51°8.719 2°34.661 12.9 345 8.2 101300 75
2004-04-05 09:13:28 51°8.719 2°34.657 13.3 353 8.2 101300 75
2004-04-05 09:13:33 51°8.719 2°34.654 13.7 353 8.2 101300 75
2004-04-05 09:13:38 51°8.718 2°34.651 14.4 356 8.2 101310 76
2004-04-05 09:13:43 51°8.718 2°34.647 13.2 2 8.2 101310 76
2004-04-05 09:13:49 51°8.718 2°34.643 13.9 3 8.3 101300 76
2004-04-05 09:13:53 51°8.717 2°34.641 14.2 11 8.3 101300 76
2004-04-05 09:13:58 51°8.716 2°34.637 13.7 16 8.3 101310 76
2004-04-05 09:14:03 51°8.715 2°34.634 12.7 16 8.3 101310 76
2004-04-05 09:14:08 51°8.713 2°34.631 13.6 29 8.3 101320 75
2004-04-05 09:14:13 51°8.712 2°34.628 13.7 33 8.3 101320 75
2004-04-05 09:14:18 51°8.71 2°34.625 12.9 31 8.3 101340 75
2004-04-05 09:14:23 51°8.708 2°34.622 11.7 36 8.3 101340 75
2004-04-05 09:14:29 51°8.705 2°34.618 15.2 43 8.3 101330 75
2004-04-05 09:14:33 51°8.703 2°34.616 16.2 42 8.3 101330 75
2004-04-05 09:14:38 51°8.7 2°34.614 14.4 51 8.3 101330 75
2004-04-05 09:14:43 51°8.696 2°34.611 14.2 49 8.3 101330 75
2004-04-05 09:14:48 51°8.693 2°34.608 15 51 8.3 101330 75
2004-04-05 09:14:53 51°8.689 2°34.606 13.6 54 8.3 101330 75
2004-04-05 09:14:58 51°8.685 2°34.603 12.9 58 8.2 101280 75
2004-04-05 09:15:03 51°8.681 2°34.6 12.6 48 8.2 101280 75
2004-04-05 09:15:07 51°8.678 2°34.598 11.9 42 8.2 101300 75
2004-04-05 09:15:13 51°8.673 2°34.593 13.2 41 8.2 101300 75
2004-04-05 09:15:18 51°8.668 2°34.59 12.5 42 8.2 101310 75
2004-04-05 09:15:23 51°8.664 2°34.586 11.9 41 8.2 101310 75
2004-04-05 09:15:29 51°8.658 2°34.581 13.6 42 8.2 101300 76
2004-04-05 09:15:33 51°8.655 2°34.578 13.3 38 8.2 101300 76
2004-04-05 09:15:38 51°8.65 2°34.574 15.2 38 8.2 101320 76
2004-04-05 09:15:43 51°8.646 2°34.569 14.6 37 8.2 101320 76
2004-04-05 09:15:48 51°8.642 2°34.565 15.7 36 8.2 101320 76
2004-04-05 09:15:53 51°8.637 2°34.56 14.9 33 8.2 101320 76
2004-04-05 09:15:58 51°8.633 2°34.555 12.4 35 8.2 101320 76
2004-04-05 09:16:03 51°8.629 2°34.55 12.6 34 8.2 101320 76
2004-04-05 09:16:09 51°8.624 2°34.543 12.5 26 8.2 101320 76
2004-04-05 09:16:13 51°8.621 2°34.54 13.8 29 8.2 101320 76
2004-04-05 09:16:18 51°8.617 2°34.534 14 37 8.2 101310 76
2004-04-05 09:16:23 51°8.613 2°34.529 13.4 31 8.2 101310 76
2004-04-05 09:16:27 51°8.61 2°34.524 13.1 32 8.2 101310 76
2004-04-05 09:16:33 51°8.605 2°34.516 13.6 19 8.2 101310 76
2004-04-05 09:16:38 51°8.602 2°34.51 13.6 20 8.2 101320 76
2004-04-05 09:16:43 51°8.598 2°34.503 14 20 8.2 101320 76
2004-04-05 09:16:49 51°8.594 2°34.495 13.4 20 8.2 101320 76
2004-04-05 09:16:53 51°8.592 2°34.49 14.6 22 8.2 101320 76
2004-04-05 09:16:58 51°8.588 2°34.483 15.9 20 8.2 101320 76
2004-04-05 09:17:03 51°8.585 2°34.476 16 17 8.2 101320 76
2004-04-05 09:17:09 51°8.581 2°34.468 16 20 8.2 101320 76
2004-04-05 09:17:13 51°8.579 2°34.462 15 21 8.2 101320 76
2004-04-05 09:17:18 51°8.575 2°34.455 15.3 20 8.2 101320 76
2004-04-05 09:17:23 51°8.572 2°34.449 14.8 20 8.2 101320 76
2004-04-05 09:17:29 51°8.569 2°34.441 13.8 19 8.2 101320 76
2004-04-05 09:17:33 51°8.567 2°34.436 17.4 21 8.2 101320 76
2004-04-05 09:17:38 51°8.564 2°34.43 14.5 18 8.2 101320 76
2004-04-05 09:17:43 51°8.561 2°34.424 15.6 16 8.2 101320 76
2004-04-05 09:17:49 51°8.558 2°34.416 15.7 22 8.2 101320 76
2004-04-05 09:17:53 51°8.555 2°34.412 14.8 22 8.2 101320 76
2004-04-05 09:17:58 51°8.553 2°34.406 13.4 17 8.2 101330 76
2004-04-05 09:18:03 51°8.55 2°34.401 14.4 17 8.2 101330 76
2004-04-05 09:18:09 51°8.547 2°34.393 12.3 12 8.2 101320 76
2004-04-05 09:18:13 51°8.545 2°34.388 14.2 20 8.2 101320 76
2004-04-05 09:18:17 51°8.543 2°34.383 13.2 9 8.2 101320 75
2004-04-05 09:18:23 51°8.54 2°34.376 12.8 10 8.2 101320 75
2004-04-05 09:18:29 51°8.537 2°34.368 9.9 12 8.2 101320 76
2004-04-05 09:18:33 51°8.535 2°34.363 11.6 9 8.2 101320 76
2004-04-05 09:18:38 51°8.533 2°34.356 12 12 8.2 101330 76
2004-04-05 09:18:43 51°8.53 2°34.35 12.3 11 8.2 101330 76
2004-04-05 09:18:49 51°8.528 2°34.342 14 9 8.3 101330 76
2004-04-05 09:18:53 51°8.526 2°34.337 13.9 12 8.3 101330 76
2004-04-05 09:18:59 51°8.523 2°34.329 11.7 10 8.3 101340 76
2004-04-05 09:19:03 51°8.521 2°34.323 13 16 8.3 101340 76
2004-04-05 09:19:09 51°8.518 2°34.314 12.7 12 8.3 101330 76
2004-04-05 09:19:13 51°8.516 2°34.308 12.6 357 8.3 101330 76
2004-04-05 09:19:18 51°8.514 2°34.301 12.6 8 8.3 101330 76
2004-04-05 09:19:23 51°8.512 2°34.294 13.8 7 8.3 101330 76
2004-04-05 09:19:27 51°8.51 2°34.289 12.5 8 8.3 101330 76
2004-04-05 09:19:33 51°8.507 2°34.28 13.8 10 8.3 101330 76
2004-04-05 09:19:39 51°8.504 2°34.272 13 15 8.3 101330 76
2004-04-05 09:19:43 51°8.502 2°34.266 16.3 13 8.3 101330 76
2004-04-05 09:19:48 51°8.499 2°34.26 13.9 21 8.3 101330 76
2004-04-05 09:19:53 51°8.496 2°34.253 14.1 18 8.3 101330 76
2004-04-05 09:19:58 51°8.493 2°34.246 15.2 25 8.3 101330 76
2004-04-05 09:20:03 51°8.49 2°34.24 13.1 20 8.3 101330 76
2004-04-05 09:20:09 51°8.487 2°34.233 13.1 21 8.3 101330 76
2004-04-05 09:20:13 51°8.484 2°34.228 13.8 20 8.3 101330 76
2004-04-05 09:20:17 51°8.482 2°34.223 13 19 8.3 101320 76
2004-04-05 09:20:23 51°8.478 2°34.217 11.8 14 8.3 101320 76
2004-04-05 09:20:29 51°8.475 2°34.21 13.8 22 8.3 101320 76
2004-04-05 09:20:33 51°8.472 2°34.206 14.3 15 8.3 101320 76
2004-04-05 09:20:38 51°8.47 2°34.2 12.6 20 8.3 101320 76
2004-04-05 09:20:43 51°8.467 2°34.194 15.3 21 8.3 101320 76
2004-04-05 09:20:47 51°8.465 2°34.19 14.7 27 8.3 101310 76
2004-04-05 09:20:53 51°8.462 2°34.183 15.2 17 8.3 101310 76
2004-04-05 09:20:58 51°8.459 2°34.177 13.4 18 8.3 101320 76
2004-04-05 09:21:03 51°8.456 2°34.172 11.8 14 8.3 101320 76
2004-04-05 09:21:09 51°8.453 2°34.165 14.6 17 8.3 101320 76
2004-04-05 09:21:13 51°8.451 2°34.161 15.3 18 8.3 101320 76
2004-04-05 09:21:19 51°8.448 2°34.155 14.2 20 8.3 101310 76
2004-04-05 09:21:23 51°8.445 2°34.15 14 20 8.3 101310 76
2004-04-05 09:21:29 51°8.442 2°34.144 14.8 22 8.3 101320 76
2004-04-05 09:21:33 51°8.44 2°34.14 13.4 21 8.3 101320 76
2004-04-05 09:21:37 51°8.438 2°34.135 14.6 18 8.3 101320 75
2004-04-05 09:21:43 51°8.434 2°34.128 14.7 17 8.3 101320 75
2004-04-05 09:21:49 51°8.431 2°34.121 13.3 21 8.3 101310 75